Portada
METAR-TAF:

METAR-TAF

Aeroports :

Aeroport d'Ouagadougou

Ouagadougou, Burkina Faso

latitud: 12-21N, longitud: 001-31W, altitud: 316 m

Observació

L'informe es va fer fa 1 hora i 8 minuts, a les 07:00 UTC
Vent calma
Temperatura 26°C
Humitat 100%
Pressió 1012 hPa
Visibilitat 10 km o més
sense núvols per sota de 1500 mi sense presència de cumulonimbus.

METAR: DFFD 210700Z 00000KT CAVOK 26/26 Q1012 NOSIG

Hora: 08:08 (08:08 UTC)

Pronòstic

L'informe es va fer fa 3 hores i 8 minuts, a les 05:00 UTC
Pronòstic vàlid del 21 a les 06 UTC al 22 a les 12 UTC
Vent 6 kt del Sud
Visibilitat 10 km o més
Escasses núvols a una alçada de 2000 ft
Temporalment
l' 21 a les 15 UTC al 21 a les 24 UTC
Visibilitat: 4000 m
Núvols disperses a una alçada de 2000 ft
Núvols disperses a una alçada de 3300 ft, Cumulonimbus.
tempesta, pluja

TAF: DFFD 210500Z 2106/2212 18006KT 9999 FEW020 TEMPO 2115/2124 4000 TSRA SCT020 SCT033CB

Observacions i pronòstics meteorològics de més de 4000 aeroports (METAR i TAF).

Les estacions disponibles són els punts grocs i vermells al mapa.

Posi el ratolí al punt desitjat per veure el nom de l'estació.

Feu clic per veure les observacions i els pronòstics meteorològics.

Per canviar el mapa: feu clic els botons verds amb una creu de color negre per apropar; al botó verd amb un guió per allunyar la imatge; o en les fletxes verdes per a mapes adjacents.


METAR-TAF: